Location: Asheville, NC
(35.6000°N, 82.5500°W)
Time: 01:42:00
(UTC-04:00)

Vanguard 3 - Pass Details

Date: 14 December 2017
Orbit: 508 x 3264 km, 33.3° (Epoch: 20 July)

Event Time Altitude Azimuth Distance (km) Brightness Sun altitude
Rises 10:28:18 0° 216° (SW) 4,416 11.2 25.0°
Reaches altitude 10° 10:32:50 10° 200° (SSW) 2,911 10.7 25.4°
Maximum altitude 10:37:07 18° 160° (SSE) 1,944 11.5 25.9°
Drops below altitude 10° 10:40:23 10° 117° (ESE) 2,122 10.3 26.2°
Sets 10:43:00 0° 96° (E) 2,822 10.4 26.4°
